Weather History for McAllen, TX

Change the Weather History Date:

Sunday, February 3, 2013

  Actual Average Record
Temperature  
Mean Temperature 69 °F 63 °F  
Max Temperature 79 °F 73 °F 93 °F (2006)
Min Temperature 58 °F 52 °F 19 °F (1888)
Degree Days  
Heating Degree Days 0 5  
Month to date heating degree days 0 15  
Since 1 July heating degree days 269 442  
Cooling Degree Days 4 3  
Month to date cooling degree days 11 7  
Year to date cooling degree days 99 69  
Growing Degree Days 18 (Base 50)    
Moisture  
Dew Point 54 °F    
Average Humidity 60    
Maximum Humidity 87    
Minimum Humidity 32    
Precipitation  
Precipitation 0.00 in 0.05 in 2.46 in (1986)
Month to date precipitation T 0.14  
Year to date precipitation 0.98 1.19  
Sea Level Pressure  
Sea Level Pressure 30.18 in    
Wind  
Wind Speed 7 mph (ESE)    
Max Wind Speed 18 mph    
Max Gust Speed 23 mph    
Visibility 10 miles    
Events      
T = Trace of Precipitation, MM = Missing Value Source: NWS Daily Summary

Daily Weather History Graph

Daily Weather History Graph

Search for Another Location

Airport:

Trip Planner

Search our weather history database for the weather conditions in past years. The results will help you decide how hot, cold, wet, or windy it might be!

Date:

Astronomy

Feb. 03, 2013 Rise Set
Actual Time 7:16 AM CST 6:17 PM CST
Civil Twilight 6:52 AM CST 6:41 PM CST
Nautical Twilight 6:24 AM CST 7:09 PM CST
Astronomical Twilight 5:57 AM CST 7:36 PM CST
Moon 12:43 AM CST (2/3) 11:59 AM CST (2/3)
Length of Visible Light 11h 49m
Length of Day
11h 01m
Waning Gibbous, 48% of the Moon is Illuminated
Feb 3
Waning Gibbous
Feb 10
New
Feb 17
First Quarter
Feb 25
Full
Mar 4
Last Quarter

Hourly Weather History & Observations

Time (CST) Temp. Dew Point Humidity Pressure Visibility Wind Dir Wind Speed Gust Speed Precip Events Conditions
12:53 AM 63.0 °F 57.0 °F 81% 30.22 in 10.0 mi ESE 8.1 mph - N/A   Clear
1:53 AM 64.0 °F 57.0 °F 78% 30.22 in 10.0 mi ESE 6.9 mph - N/A   Scattered Clouds
2:53 AM 62.1 °F 55.9 °F 80% 30.22 in 10.0 mi SE 3.5 mph - N/A   Partly Cloudy
3:33 AM 60.8 °F 55.4 °F 82% 30.23 in 10.0 mi SE 3.5 mph - N/A   Mostly Cloudy
3:53 AM 61.0 °F 55.9 °F 83% 30.23 in 10.0 mi Calm Calm - N/A   Mostly Cloudy
4:09 AM 62.6 °F 57.2 °F 82% 30.23 in 10.0 mi Calm Calm - N/A   Mostly Cloudy
4:53 AM 62.1 °F 57.0 °F 84% 30.24 in 10.0 mi Calm Calm - N/A   Partly Cloudy
5:53 AM 60.1 °F 55.9 °F 86% 30.24 in 10.0 mi Calm Calm - N/A   Clear
6:53 AM 59.0 °F 55.9 °F 90% 30.25 in 10.0 mi Calm Calm - N/A   Mostly Cloudy
7:53 AM 59.0 °F 55.9 °F 90% 30.26 in 10.0 mi Calm Calm - N/A   Scattered Clouds
8:03 AM 60.8 °F 57.2 °F 88% 30.26 in 10.0 mi Calm Calm - N/A   Mostly Cloudy
8:10 AM 62.6 °F 57.2 °F 82% 30.26 in 10.0 mi ESE 3.5 mph - N/A   Scattered Clouds
8:53 AM 64.0 °F 57.9 °F 80% 30.27 in 10.0 mi Calm Calm - N/A   Scattered Clouds
9:53 AM 68.0 °F 59.0 °F 73% 30.28 in 10.0 mi SSE 3.5 mph - N/A   Mostly Cloudy
10:53 AM 73.9 °F 57.9 °F 57% 30.27 in 10.0 mi SSE 6.9 mph - N/A   Clear
11:53 AM 73.9 °F 55.9 °F 53% 30.24 in 10.0 mi Variable 3.5 mph - N/A   Mostly Cloudy
12:53 PM 75.9 °F 48.9 °F 38% 30.20 in 10.0 mi ESE 9.2 mph - N/A   Scattered Clouds
1:53 PM 77.0 °F 48.9 °F 37% 30.16 in 10.0 mi East 11.5 mph - N/A   Mostly Cloudy
2:53 PM 78.1 °F 46.9 °F 33% 30.12 in 10.0 mi East 11.5 mph - N/A   Mostly Cloudy
3:53 PM 78.1 °F 46.0 °F 32% 30.11 in 10.0 mi East 15.0 mph 19.6 mph N/A   Partly Cloudy
4:53 PM 75.9 °F 46.0 °F 35% 30.09 in 10.0 mi ESE 18.4 mph - N/A   Clear
5:53 PM 72.0 °F 46.0 °F 40% 30.09 in 10.0 mi East 15.0 mph - N/A   Clear
6:53 PM 69.1 °F 51.1 °F 53% 30.09 in 10.0 mi East 12.7 mph - N/A   Clear
7:53 PM 66.9 °F 55.0 °F 66% 30.10 in 10.0 mi ESE 11.5 mph - N/A   Clear
8:53 PM 64.9 °F 55.9 °F 73% 30.09 in 10.0 mi ESE 11.5 mph - N/A   Clear
9:53 PM 63.0 °F 55.0 °F 75% 30.08 in 10.0 mi ESE 8.1 mph - N/A   Clear
10:53 PM 63.0 °F 55.0 °F 75% 30.06 in 10.0 mi ESE 5.8 mph - N/A   Clear
11:53 PM 63.0 °F 55.0 °F 75% 30.02 in 10.0 mi ESE 8.1 mph - N/A   Clear